TimeCST,TemperatureF,Dew PointF,Humidity,Sea Level PressureIn,VisibilityMPH,Wind Direction,Wind SpeedMPH,Gust SpeedMPH,PrecipitationIn,Events,Conditions,WindDirDegrees,DateUTC
12:55 AM,37.2,30.0,75,30.30,10.0,NW,11.5,-,N/A,,Clear,310,2013-01-17 06:55:00
1:55 AM,36.7,30.0,77,30.31,10.0,NNW,13.8,-,N/A,,Clear,330,2013-01-17 07:55:00
2:55 AM,35.8,29.1,77,30.33,10.0,NW,10.4,-,N/A,,Clear,310,2013-01-17 08:55:00
3:55 AM,37.2,28.4,70,30.34,10.0,NW,12.7,-,N/A,,Clear,320,2013-01-17 09:55:00
4:55 AM,37.9,28.0,68,30.35,10.0,NW,10.4,-,N/A,,Clear,320,2013-01-17 10:55:00
5:55 AM,38.3,28.0,67,30.38,10.0,NNW,10.4,-,N/A,,Clear,340,2013-01-17 11:55:00
6:55 AM,34.0,26.1,73,30.43,10.0,Calm,Calm,-,N/A,,Clear,0,2013-01-17 12:55:00
7:55 AM,34.5,27.5,76,30.46,10.0,North,6.9,-,N/A,,Clear,360,2013-01-17 13:55:00
8:55 AM,39.9,29.7,67,30.48,10.0,North,11.5,-,N/A,,Clear,10,2013-01-17 14:55:00
9:55 AM,44.1,30.0,58,30.53,10.0,NNE,9.2,-,N/A,,Clear,30,2013-01-17 15:55:00
10:55 AM,47.1,31.3,54,30.54,10.0,NNE,10.4,-,N/A,,Clear,30,2013-01-17 16:55:00
11:55 AM,50.0,30.9,48,30.53,10.0,NNE,10.4,-,N/A,,Clear,30,2013-01-17 17:55:00
12:55 PM,52.5,30.9,44,30.50,10.0,NE,8.1,-,N/A,,Clear,50,2013-01-17 18:55:00
1:55 PM,55.6,30.6,39,30.47,10.0,NE,5.8,-,N/A,,Clear,40,2013-01-17 19:55:00
2:55 PM,56.5,30.9,38,30.46,10.0,North,5.8,-,N/A,,Clear,360,2013-01-17 20:55:00
3:55 PM,56.3,30.4,37,30.46,10.0,Variable,4.6,-,N/A,,Clear,0,2013-01-17 21:55:00
4:55 PM,56.1,30.7,38,30.47,10.0,NNE,5.8,-,N/A,,Clear,30,2013-01-17 22:55:00
5:55 PM,50.9,32.2,49,30.47,10.0,Calm,Calm,-,N/A,,Clear,0,2013-01-17 23:55:00
6:55 PM,43.9,30.2,59,30.49,10.0,Calm,Calm,-,N/A,,Clear,0,2013-01-18 00:55:00
7:55 PM,38.5,29.5,70,30.50,10.0,Calm,Calm,-,N/A,,Clear,0,2013-01-18 01:55:00
8:55 PM,37.2,29.7,74,30.51,10.0,Calm,Calm,-,N/A,,Clear,0,2013-01-18 02:55:00
9:55 PM,34.3,27.1,75,30.51,10.0,Calm,Calm,-,N/A,,Clear,0,2013-01-18 03:55:00
10:55 PM,32.0,27.9,85,30.51,10.0,Calm,Calm,-,N/A,,Clear,0,2013-01-18 04:55:00
11:55 PM,31.3,26.8,83,30.50,10.0,Calm,Calm,-,N/A,,Clear,0,2013-01-18 05:55:00